| time (UTC) | temp F | wind direction | speed MPH | gust MPH | rain 1hr in | rain 24hr in | rain mn in | humidity % | barometer mb |
| 20260506185016 | 62 | 0.0 | 1.0 | 0.00 | 0.00 | 0.00 | 78 | 1012.0 | |
| 20260506184016 | 63 | 0.0 | 0.0 | 0.00 | 0.00 | 0.00 | 78 | 1011.7 | |
| 20260506183016 | 63 | 0.0 | 0.0 | 0.00 | 0.00 | 0.00 | 77 | 1011.7 | |
| 20260506182016 | 64 | 0.0 | 0.0 | 0.00 | 0.00 | 0.00 | 76 | 1011.7 | |
| 20260506181016 | 64 | 0.0 | 0.0 | 0.00 | 0.00 | 0.00 | 75 | 1011.6 | |
| 20260506180036 | 64 | 0.0 | 0.0 | 0.00 | 0.00 | 0.00 | 74 | 1011.7 | |
| 20260506175016 | 65 | 0.0 | 1.0 | 0.00 | 0.00 | 0.00 | 73 | 1011.6 | |
| 20260506174017 | 65 | 0.0 | 2.0 | 0.00 | 0.00 | 0.00 | 73 | 1011.7 | |
| 20260506173016 | 65 | 0.0 | 4.0 | 0.00 | 0.00 | 0.00 | 73 | 1011.7 | |
| 20260506172016 | 65 | 203 | 2.0 | 5.0 | 0.00 | 0.00 | 0.00 | 72 | 1011.6 |
| 20260506171016 | 65 | 203 | 5.0 | 9.0 | 0.00 | 0.00 | 0.00 | 72 | 1011.7 |
| 20260506170036 | 66 | 203 | 5.0 | 8.0 | 0.00 | 0.00 | 0.00 | 71 | 1011.7 |
| 20260506165016 | 66 | 203 | 3.0 | 6.0 | 0.00 | 0.00 | 0.00 | 70 | 1011.6 |
| 20260506164016 | 67 | 203 | 3.0 | 5.0 | 0.00 | 0.00 | 0.00 | 68 | 1011.7 |
| 20260506163018 | 67 | 203 | 3.0 | 7.0 | 0.00 | 0.00 | 0.00 | 67 | 1011.7 |
| 20260506162016 | 67 | 225 | 3.0 | 9.0 | 0.00 | 0.00 | 0.00 | 67 | 1011.7 |
| 20260506161016 | 68 | 203 | 6.0 | 10.0 | 0.00 | 0.00 | 0.00 | 66 | 1011.7 |
| 20260506160016 | 69 | 203 | 4.0 | 8.0 | 0.00 | 0.00 | 0.00 | 65 | 1011.7 |
| 20260506155016 | 70 | 225 | 4.0 | 9.0 | 0.00 | 0.00 | 0.00 | 64 | 1011.7 |
| 20260506154016 | 71 | 225 | 3.0 | 10.0 | 0.00 | 0.00 | 0.00 | 62 | 1011.5 |
| 20260506153016 | 71 | 225 | 4.0 | 10.0 | 0.00 | 0.00 | 0.00 | 56 | 1011.5 |
| 20260506152036 | 72 | 248 | 3.0 | 9.0 | 0.00 | 0.00 | 0.00 | 56 | 1011.4 |
| 20260506151016 | 72 | 270 | 3.0 | 10.0 | 0.00 | 0.00 | 0.00 | 57 | 1011.3 |
| 20260506150016 | 73 | 248 | 3.0 | 9.0 | 0.00 | 0.00 | 0.00 | 55 | 1011.3 |
| 20260506145016 | 73 | 248 | 4.0 | 8.0 | 0.00 | 0.00 | 0.00 | 56 | 1011.2 |
| 20260506144016 | 73 | 203 | 3.0 | 7.0 | 0.00 | 0.00 | 0.00 | 55 | 1011.3 |
| 20260506143016 | 74 | 225 | 3.0 | 9.0 | 0.00 | 0.00 | 0.00 | 54 | 1011.2 |
| 20260506142015 | 75 | 248 | 3.0 | 7.0 | 0.00 | 0.00 | 0.00 | 55 | 1011.2 |
| 20260506141016 | 74 | 225 | 4.0 | 9.0 | 0.00 | 0.00 | 0.00 | 55 | 1011.1 |
| 20260506140016 | 74 | 248 | 4.0 | 10.0 | 0.00 | 0.00 | 0.00 | 56 | 1011.2 |
| 20260506135015 | 74 | 248 | 3.0 | 7.0 | 0.00 | 0.00 | 0.00 | 56 | 1011.3 |
| 20260506134017 | 74 | 203 | 5.0 | 12.0 | 0.00 | 0.00 | 0.00 | 56 | 1011.2 |
| 20260506133016 | 74 | 225 | 4.0 | 9.0 | 0.00 | 0.00 | 0.00 | 57 | 1011.3 |
| 20260506132015 | 74 | 248 | 4.0 | 9.0 | 0.00 | 0.00 | 0.00 | 57 | 1011.3 |
| 20260506131015 | 74 | 225 | 5.0 | 11.0 | 0.00 | 0.00 | 0.00 | 58 | 1011.2 |
| 20260506130016 | 75 | 225 | 6.0 | 12.0 | 0.00 | 0.00 | 0.00 | 57 | 1011.4 |
| 20260506125016 | 75 | 225 | 4.0 | 10.0 | 0.00 | 0.00 | 0.00 | 57 | 1011.4 |
| 20260506124015 | 75 | 225 | 4.0 | 10.0 | 0.00 | 0.00 | 0.00 | 57 | 1011.4 |
| 20260506123016 | 75 | 203 | 5.0 | 10.0 | 0.00 | 0.00 | 0.00 | 58 | 1011.5 |
| 20260506122015 | 75 | 203 | 5.0 | 10.0 | 0.00 | 0.00 | 0.00 | 55 | 1011.6 |
| 20260506121016 | 75 | 225 | 4.0 | 14.0 | 0.00 | 0.00 | 0.00 | 58 | 1011.6 |
| 20260506120017 | 75 | 270 | 2.0 | 9.0 | 0.00 | 0.00 | 0.00 | 59 | 1011.6 |
| 20260506115015 | 74 | 248 | 2.0 | 6.0 | 0.00 | 0.00 | 0.00 | 58 | 1011.6 |
| 20260506114017 | 74 | 270 | 4.0 | 10.0 | 0.00 | 0.00 | 0.00 | 58 | 1011.7 |
| 20260506113017 | 74 | 270 | 4.0 | 9.0 | 0.00 | 0.00 | 0.00 | 58 | 1011.7 |
| 20260506112017 | 74 | 248 | 2.0 | 5.0 | 0.00 | 0.00 | 0.00 | 58 | 1011.7 |
| 20260506111017 | 74 | 225 | 2.0 | 6.0 | 0.00 | 0.00 | 0.00 | 58 | 1011.6 |
| 20260506110017 | 73 | 203 | 4.0 | 13.0 | 0.00 | 0.00 | 0.00 | 59 | 1011.6 |
| 20260506105017 | 74 | 203 | 3.0 | 7.0 | 0.00 | 0.00 | 0.00 | 58 | 1011.8 |
| 20260506104037 | 74 | 203 | 2.0 | 7.0 | 0.00 | 0.00 | 0.00 | 58 | 1011.9 |
| 20260506103017 | 74 | 203 | 2.0 | 6.0 | 0.00 | 0.00 | 0.00 | 60 | 1011.9 |
| 20260506102037 | 72 | 225 | 1.0 | 3.0 | 0.00 | 0.00 | 0.00 | 62 | 1011.8 |
| 20260506101037 | 72 | 225 | 1.0 | 2.0 | 0.00 | 0.00 | 0.00 | 63 | 1011.9 |
| 20260506100100 | 71 | 203 | 1.0 | 4.0 | 0.00 | 0.00 | 0.00 | 62 | 1012.0 |
| 20260506095017 | 71 | 0.0 | 3.0 | 0.00 | 0.00 | 0.00 | 64 | 1012.0 | |
| 20260506094017 | 69 | 113 | 1.0 | 4.0 | 0.00 | 0.00 | 0.00 | 67 | 1011.9 |
| 20260506093038 | 68 | 0.0 | 2.0 | 0.00 | 0.00 | 0.00 | 69 | 1011.9 | |
| 20260506092017 | 67 | 0.0 | 3.0 | 0.00 | 0.00 | 0.00 | 69 | 1012.0 | |
| 20260506091057 | 67 | 90 | 2.0 | 5.0 | 0.00 | 0.00 | 0.00 | 67 | 1012.0 |
| 20260506090017 | 66 | 90 | 3.0 | 6.0 | 0.00 | 0.00 | 0.00 | 66 | 1012.0 |
| 20260506085017 | 66 | 90 | 1.0 | 4.0 | 0.00 | 0.00 | 0.00 | 70 | 1012.1 |
| 20260506084017 | 64 | 113 | 3.0 | 5.0 | 0.00 | 0.00 | 0.00 | 71 | 1011.9 |
| 20260506083017 | 64 | 90 | 1.0 | 5.0 | 0.00 | 0.00 | 0.00 | 73 | 1012.0 |
| 20260506082017 | 64 | 0.0 | 0.0 | 0.00 | 0.00 | 0.00 | 74 | 1012.2 | |
| 20260506081017 | 63 | 0.0 | 0.0 | 0.00 | 0.00 | 0.00 | 74 | 1012.4 | |
| 20260506073017 | 63 | 0.0 | 0.0 | 0.00 | 0.00 | 0.00 | 75 | 1012.4 | |
| 20260506072017 | 62 | 0.0 | 0.0 | 0.00 | 0.00 | 0.00 | 75 | 1012.4 | |
| 20260506071017 | 64 | 0.0 | 0.0 | 0.00 | 0.00 | 0.00 | 74 | 1012.3 | |
| 20260506062017 | 62 | 0.0 | 0.0 | 0.00 | 0.00 | 0.00 | 74 | 1012.5 | |
| 20260506061017 | 61 | 0.0 | 0.0 | 0.00 | 0.00 | 0.00 | 75 | 1012.4 | |
| 20260506051057 | 61 | 0.0 | 0.0 | 0.00 | 0.00 | 0.00 | 75 | 1011.8 | |
| 20260506045017 | 60 | 0.0 | 0.0 | 0.00 | 0.00 | 0.00 | 76 | 1011.5 | |
| 20260506044016 | 59 | 0.0 | 0.0 | 0.00 | 0.00 | 0.00 | 77 | 1011.6 | |
| 20260506043017 | 59 | 0.0 | 0.0 | 0.00 | 0.00 | 0.00 | 76 | 1011.6 | |
| 20260506042016 | 59 | 0.0 | 0.0 | 0.00 | 0.00 | 0.00 | 76 | 1011.7 | |
| 20260506041016 | 59 | 0.0 | 0.0 | 0.00 | 0.00 | 0.00 | 75 | 1011.7 | |
| 20260506040016 | 58 | 0.0 | 0.0 | 0.00 | 0.00 | 0.00 | 75 | 1011.7 | |
| 20260506035036 | 58 | 0.0 | 0.0 | 0.00 | 0.00 | 0.00 | 77 | 1011.7 | |
| 20260506034016 | 58 | 0.0 | 0.0 | 0.00 | 0.00 | 0.00 | 75 | 1011.6 | |
| 20260506033017 | 58 | 0.0 | 0.0 | 0.00 | 0.00 | 0.00 | 73 | 1011.6 | |
| 20260506032016 | 58 | 0.0 | 0.0 | 0.00 | 0.00 | 0.00 | 73 | 1011.8 | |
| 20260506031017 | 58 | 0.0 | 0.0 | 0.00 | 0.00 | 0.00 | 73 | 1011.7 | |
| 20260506030016 | 57 | 0.0 | 0.0 | 0.00 | 0.00 | 0.00 | 73 | 1011.8 | |
| 20260506025016 | 58 | 0.0 | 0.0 | 0.00 | 0.00 | 0.00 | 71 | 1011.9 | |
| 20260506024017 | 59 | 0.0 | 0.0 | 0.00 | 0.00 | 0.00 | 68 | 1011.8 | |
| 20260506023016 | 59 | 0.0 | 0.0 | 0.00 | 0.00 | 0.00 | 66 | 1011.9 | |
| 20260506022016 | 59 | 0.0 | 0.0 | 0.00 | 0.00 | 0.00 | 65 | 1012.0 | |
| 20260506021036 | 59 | 0.0 | 0.0 | 0.00 | 0.00 | 0.00 | 69 | 1012.1 | |
| 20260506020036 | 59 | 0.0 | 0.0 | 0.00 | 0.00 | 0.00 | 69 | 1012.2 | |
| 20260506015016 | 59 | 0.0 | 0.0 | 0.00 | 0.00 | 0.00 | 71 | 1012.2 | |
| 20260506014036 | 59 | 0.0 | 0.0 | 0.00 | 0.00 | 0.00 | 71 | 1012.1 | |
| 20260506013016 | 59 | 0.0 | 0.0 | 0.00 | 0.00 | 0.00 | 72 | 1012.1 | |
| 20260506012016 | 59 | 0.0 | 0.0 | 0.00 | 0.00 | 0.00 | 70 | 1012.1 | |
| 20260506011056 | 59 | 0.0 | 0.0 | 0.00 | 0.00 | 0.00 | 74 | 1012.3 | |
| 20260506010016 | 59 | 0.0 | 0.0 | 0.00 | 0.00 | 0.00 | 73 | 1012.5 | |
| 20260506005017 | 59 | 0.0 | 0.0 | 0.00 | 0.00 | 0.00 | 72 | 1012.5 | |
| 20260506004017 | 59 | 0.0 | 0.0 | 0.00 | 0.00 | 0.00 | 71 | 1012.7 | |
| 20260506003016 | 59 | 0.0 | 0.0 | 0.00 | 0.00 | 0.00 | 71 | 1012.7 | |
| 20260506002016 | 59 | 0.0 | 0.0 | 0.00 | 0.00 | 0.00 | 71 | 1012.8 | |
| 20260506001036 | 59 | 0.0 | 0.0 | 0.00 | 0.00 | 0.00 | 71 | 1012.8 | |
| 20260506000016 | 59 | 0.0 | 0.0 | 0.00 | 0.00 | 0.00 | 72 | 1012.9 | |
| 20260505235016 | 59 | 0.0 | 0.0 | 0.00 | 0.00 | 0.00 | 72 | 1013.1 | |
| 20260505234056 | 59 | 0.0 | 0.0 | 0.00 | 0.00 | 0.00 | 72 | 1013.1 | |
| 20260505233016 | 59 | 0.0 | 0.0 | 0.00 | 0.00 | 0.00 | 72 | 1013.2 | |
| 20260505232016 | 58 | 0.0 | 0.0 | 0.00 | 0.00 | 0.00 | 72 | 1013.1 | |
| 20260505231016 | 59 | 0.0 | 0.0 | 0.00 | 0.00 | 0.00 | 71 | 1013.4 | |
| 20260505230016 | 58 | 0.0 | 0.0 | 0.00 | 0.00 | 0.00 | 72 | 1013.3 | |
| 20260505225016 | 58 | 0.0 | 0.0 | 0.00 | 0.00 | 0.00 | 72 | 1013.4 | |
| 20260505224036 | 58 | 0.0 | 0.0 | 0.00 | 0.00 | 0.00 | 72 | 1013.4 | |
| 20260505223016 | 58 | 0.0 | 0.0 | 0.00 | 0.00 | 0.00 | 72 | 1013.5 | |
| 20260505222016 | 58 | 0.0 | 0.0 | 0.00 | 0.00 | 0.00 | 72 | 1013.6 | |
| 20260505221016 | 58 | 0.0 | 0.0 | 0.00 | 0.00 | 0.00 | 72 | 1013.7 | |
| 20260505220016 | 58 | 0.0 | 0.0 | 0.00 | 0.00 | 0.00 | 72 | 1013.7 | |
| 20260505215016 | 58 | 0.0 | 0.0 | 0.00 | 0.00 | 0.00 | 73 | 1013.6 | |
| 20260505214016 | 58 | 0.0 | 0.0 | 0.00 | 0.00 | 0.00 | 73 | 1013.6 | |
| 20260505213016 | 58 | 0.0 | 0.0 | 0.00 | 0.00 | 0.00 | 73 | 1013.7 | |
| 20260505212037 | 58 | 0.0 | 0.0 | 0.00 | 0.00 | 0.00 | 72 | 1013.7 | |
| 20260505211016 | 59 | 0.0 | 0.0 | 0.00 | 0.00 | 0.00 | 71 | 1013.8 | |
| 20260505210018 | 59 | 0.0 | 0.0 | 0.00 | 0.00 | 0.00 | 70 | 1013.9 | |
| 20260505205016 | 60 | 0.0 | 0.0 | 0.00 | 0.00 | 0.00 | 69 | 1013.9 | |
| 20260505204016 | 60 | 0.0 | 0.0 | 0.00 | 0.00 | 0.00 | 69 | 1013.9 | |
| 20260505203036 | 60 | 0.0 | 0.0 | 0.00 | 0.00 | 0.00 | 69 | 1013.9 | |
| 20260505202016 | 60 | 0.0 | 0.0 | 0.00 | 0.00 | 0.00 | 69 | 1013.8 | |
| 20260505201016 | 60 | 0.0 | 0.0 | 0.00 | 0.00 | 0.00 | 67 | 1013.9 | |
| 20260505200016 | 60 | 0.0 | 0.0 | 0.00 | 0.00 | 0.00 | 67 | 1013.9 | |
| 20260505195016 | 60 | 0.0 | 0.0 | 0.00 | 0.00 | 0.00 | 67 | 1013.9 | |
| 20260505194016 | 61 | 0.0 | 0.0 | 0.00 | 0.00 | 0.00 | 66 | 1013.8 | |
| 20260505193016 | 61 | 0.0 | 0.0 | 0.00 | 0.00 | 0.00 | 65 | 1013.7 | |
| 20260505192016 | 62 | 0.0 | 0.0 | 0.00 | 0.00 | 0.00 | 65 | 1013.7 | |
| 20260505191016 | 62 | 0.0 | 0.0 | 0.00 | 0.00 | 0.00 | 64 | 1013.6 | |
| 20260505190016 | 62 | 0.0 | 0.0 | 0.00 | 0.00 | 0.00 | 63 | 1013.7 |